Weather History for KAUW - July, 2014

Change the Weather History Date:

Tuesday, July 15, 2014

  Actual Average Record
Temperature  
Mean Temperature 59 °F 70 °F  
Max Temperature 66 °F 80 °F 98 °F (2006)
Min Temperature 51 °F 59 °F 46 °F (1946)
Degree Days  
Heating Degree Days 6 1  
Month to date heating degree days 26 15  
Since 1 June heating degree days 48 104  
Since 1 July heating degree days 26 15  
Cooling Degree Days 0 5  
Month to date cooling degree days 33 75  
Year to date cooling degree days 168 179  
Since 1 June cooling degree days 143 160  
Growing Degree Days 9 (Base 50)    
Moisture  
Dew Point 49 °F    
Average Humidity 71    
Maximum Humidity 96    
Minimum Humidity 45    
Precipitation  
Precipitation 0.01 in 0.12 in 2.07 in (1995)
Month to date precipitation 1.85 1.79  
Year to date precipitation 18.80 16.01  
Snow  
Snow 0.00 in 0.00 in 0.00 in ()
Month to date snowfall 0.0 0.0  
Since 1 June snowfall 0.0 0.0  
Since 1 July snowfall 0.0 0.0  
Snow Depth 0.00 in    
Sea Level Pressure  
Sea Level Pressure 29.94 in    
Wind  
Wind Speed 8 mph (NNW)    
Max Wind Speed 17 mph    
Max Gust Speed 26 mph    
Visibility 10 miles    
Events Rain    
T = Trace of Precipitation, MM = Missing Value Source: NWS Daily Summary

Daily Weather History Graph

Daily Weather History Graph

Search for Another Location

Airport or City:

Trip Planner

Search our weather history database for the weather conditions in past years. The results will help you decide how hot, cold, wet, or windy it might be!

Date:

Astronomy

Jul. 15, 2014 Rise Set
Actual Time 5:26 AM CDT 8:42 PM CDT
Civil Twilight 4:50 AM CDT 9:17 PM CDT
Nautical Twilight 4:03 AM CDT 10:04 PM CDT
Astronomical Twilight 3:06 AM CDT 11:01 PM CDT
Moon 10:36 PM CDT (7/15) 9:32 AM CDT (7/15)
Length of Visible Light 16h 27m
Length of Day
15h 15m
Waning Gibbous, 85% of the Moon is Illuminated
Jul 15
Waning Gibbous
Jul 18
Last Quarter
Jul 26
New
Aug 3
First Quarter
Aug 10
Full

Hourly Weather History & Observations

Time (CDT) Temp. Dew Point Humidity Pressure Visibility Wind Dir Wind Speed Gust Speed Precip Events Conditions
12:12 AM 54.0 °F 51.1 °F 90% 29.89 in 10.0 mi NNW 10.4 mph - N/A   Overcast
12:54 AM 53.1 °F 51.1 °F 93% 29.92 in 10.0 mi NNW 8.1 mph - N/A   Scattered Clouds
1:20 AM 53.1 °F 51.1 °F 93% 29.90 in 10.0 mi NW 6.9 mph - N/A   Mostly Cloudy
1:54 AM 52.0 °F 50.0 °F 93% 29.91 in 10.0 mi NW 5.8 mph - N/A   Overcast
2:18 AM 52.0 °F 50.0 °F 93% 29.90 in 10.0 mi NW 5.8 mph - N/A   Overcast
2:25 AM 52.0 °F 50.0 °F 93% 29.90 in 10.0 mi NNW 4.6 mph - N/A   Mostly Cloudy
2:40 AM 52.0 °F 50.0 °F 93% 29.90 in 10.0 mi NW 4.6 mph - N/A   Overcast
2:54 AM 52.0 °F 50.0 °F 93% 29.91 in 10.0 mi NNW 8.1 mph - N/A   Overcast
3:54 AM 52.0 °F 50.0 °F 93% 29.91 in 10.0 mi NW 6.9 mph - N/A   Overcast
4:40 AM 52.0 °F 50.0 °F 93% 29.89 in 10.0 mi NW 9.2 mph - N/A   Overcast
4:54 AM 52.0 °F 50.0 °F 93% 29.91 in 10.0 mi NNW 6.9 mph - N/A   Overcast
5:46 AM 53.1 °F 50.0 °F 89% 29.90 in 10.0 mi NW 8.1 mph - N/A   Overcast
5:54 AM 53.1 °F 50.0 °F 89% 29.92 in 10.0 mi NW 9.2 mph - N/A   Overcast
6:07 AM 53.1 °F 50.0 °F 89% 29.90 in 10.0 mi NW 10.4 mph - N/A   Overcast
6:54 AM 54.0 °F 51.1 °F 90% 29.92 in 10.0 mi NW 10.4 mph - N/A   Overcast
7:08 AM 54.0 °F 51.1 °F 90% 29.90 in 10.0 mi NW 10.4 mph - N/A   Overcast
7:27 AM 54.0 °F 51.1 °F 90% 29.91 in 10.0 mi NNW 8.1 mph - N/A   Overcast
7:54 AM 55.0 °F 52.0 °F 89% 29.94 in 10.0 mi NW 8.1 mph - N/A   Overcast
8:40 AM 55.9 °F 52.0 °F 87% 29.93 in 10.0 mi NW 12.7 mph - 0.01 in Rain Light Rain
8:54 AM 55.9 °F 52.0 °F 87% 29.95 in 10.0 mi NNW 10.4 mph - 0.01 in Rain Light Rain
9:04 AM 55.9 °F 52.0 °F 87% 29.94 in 10.0 mi NW 10.4 mph 19.6 mph 0.00 in Rain Light Rain
9:25 AM 57.0 °F 52.0 °F 83% 29.93 in 10.0 mi NW 13.8 mph 20.7 mph 0.00 in Rain Light Rain
9:54 AM 57.9 °F 52.0 °F 81% 29.95 in 10.0 mi NW 15.0 mph 23.0 mph 0.00 in   Overcast
10:54 AM 60.1 °F 51.1 °F 72% 29.96 in 10.0 mi NW 11.5 mph 21.9 mph N/A   Overcast
11:22 AM 61.0 °F 51.1 °F 70% 29.94 in 10.0 mi North 10.4 mph 19.6 mph N/A   Scattered Clouds
11:54 AM 61.0 °F 50.0 °F 67% 29.95 in 10.0 mi NNW 11.5 mph 23.0 mph N/A   Mostly Cloudy
12:01 PM 60.1 °F 48.9 °F 67% 29.94 in 10.0 mi North 13.8 mph 20.7 mph N/A   Mostly Cloudy
12:54 PM 60.1 °F 48.0 °F 64% 29.96 in 10.0 mi North 15.0 mph - N/A   Overcast
1:54 PM 63.0 °F 48.0 °F 58% 29.96 in 10.0 mi North 9.2 mph 19.6 mph N/A   Overcast
2:54 PM 62.1 °F 48.9 °F 62% 29.97 in 10.0 mi North 8.1 mph 17.3 mph N/A   Overcast
3:54 PM 64.0 °F 45.0 °F 50% 29.97 in 10.0 mi North 13.8 mph - N/A   Scattered Clouds
4:54 PM 66.0 °F 45.0 °F 47% 29.96 in 10.0 mi North 13.8 mph - N/A   Clear
5:54 PM 63.0 °F 44.1 °F 50% 29.97 in 10.0 mi North 8.1 mph 19.6 mph N/A   Mostly Cloudy
6:54 PM 64.9 °F 45.0 °F 48% 29.97 in 10.0 mi North 10.4 mph - 0.00 in   Partly Cloudy
7:54 PM 63.0 °F 45.0 °F 52% 29.98 in 10.0 mi North 6.9 mph - N/A   Partly Cloudy
8:54 PM 60.1 °F 46.0 °F 60% 29.98 in 10.0 mi NNW 3.5 mph - N/A   Clear
9:54 PM 55.9 °F 46.9 °F 72% 30.00 in 10.0 mi Calm Calm - N/A   Clear
10:54 PM 54.0 °F 48.0 °F 80% 30.00 in 10.0 mi NNW 3.5 mph - N/A   Clear
11:54 PM 53.1 °F 48.9 °F 86% 30.01 in 10.0 mi NNW 3.5 mph - N/A   Clear